Flag for Brazil Weather past 2 weeks in Manaus, Amazonas, Brazil

Now
79 °F

Clear.


Feels Like: 82 °F
Forecast: 74 / 89 °F
Wind: 3 mph from South

Location: Manaus Aeroporto

Current Time: Jul 6, 2015 at 1:30:06 AM

Latest Report: Jul 6, 2015 at 1:00 AM


Visibility: 10 mi

Pressure: 29.89 "Hg

Humidity: 89%

Dew point: 75 °F

Location of ManausLocation

Historic Weather in Manaus — Graph

°F

Manaus temperature yesterday

Maximum temperature yesterday: 86 °F (at 3:00 PM)
Minimum temperature yesterday: 77 °F (at 3:00 AM)
Average temperature yesterday: 81 °F

Past Weeks' High & Low Weather Summary

 TemperatureHumidityPressure
High90 °F (Jul 1, 2:00 PM)100% (Jun 21, 1:00 PM)30.07 "Hg (Jun 21, 1:00 PM)
Low73 °F (Jun 21, 10:00 AM)52% (Jun 25, 4:00 PM)29.77 "Hg (Jul 4, 4:00 PM)
Average81 °F79%29.94 "Hg
* Reported Midnight between Jun 20 and Jun 21 — Midnight between Jul 5 and Jul 6, Manaus, Weather by CustomWeather, © 2015

Note: Actual official high and low records may vary slightly from our data, if they occured in-between our weather recording intervals... More about our weather records

Advertising

Manaus weather history for previous 24 hours

 ConditionsComfort  
Time TempWeatherWind HumidityBarometerVisibility
12:00 AM
Mon, Jul 6
81 °FClear.3 mph84%29.89 "Hg10 mi
11:00 PM
Sun, Jul 5
82 °FClear.3 mph79%29.86 "Hg10 mi
10:00 PM82 °FClear.3 mph79%29.86 "Hg10 mi
9:00 PM82 °FClear.3 mph79%29.86 "Hg10 mi
8:00 PM82 °FClear.2 mph79%29.86 "Hg10 mi
7:00 PM82 °FClear.No wind79%29.83 "Hg10 mi
6:00 PM84 °FSunny.No wind74%29.80 "Hg10 mi
5:00 PM84 °FPassing clouds.2 mph74%29.80 "HgN/A
4:00 PM86 °FPassing clouds.3 mph70%29.80 "HgN/A
3:00 PM86 °FScattered clouds.3 mph70%29.83 "HgN/A
2:00 PM84 °FScattered clouds.5 mph79%29.86 "HgN/A
1:00 PMN/AScattered showers.5 mphN/A29.89 "HgN/A
12:00 PM79 °FScattered showers. Broken clouds.2 mph89%N/AN/A
11:00 AM84 °FScattered clouds.6 mph79%29.92 "HgN/A
10:00 AM82 °FPartly sunny.3 mph84%29.95 "HgN/A
9:00 AM82 °FBroken clouds.5 mph84%29.95 "HgN/A
8:00 AM81 °FPartly sunny.5 mph84%29.92 "HgN/A
7:00 AM81 °FPartly sunny.5 mph84%29.89 "HgN/A
6:00 AM79 °FPassing clouds.5 mph89%29.89 "HgN/A
5:00 AM77 °FPassing clouds.3 mph89%29.86 "HgN/A
4:00 AM77 °FPassing clouds.3 mph89%29.86 "HgN/A
3:00 AM77 °FClear.3 mph89%29.86 "Hg10 mi
2:00 AM79 °FClear.3 mph89%29.86 "Hg10 mi
1:00 AM79 °FClear.3 mph89%29.86 "Hg10 mi
Weather by CustomWeather, © 2015

See weather overviewHow to use our weather pages